N8BAP Weather Reports


time (UTC)temp
C
wind
direction
speed
KPH
gust
KPH
rain 1hr
cm
rain 24hr
cm
rain mn
cm
humidity
%
barometer
mb
20260508180904 18 223 17.7 17.7 0.00 0.00 0.00 42 1017.3
20260508180401 18 284 14.5 17.7 0.00 0.00 0.00 43 1017.4
20260508175856 18 241 12.9 16.1 0.00 0.00 0.00 41 1017.5
20260508175353 19 222 16.1 17.7 0.00 0.00 0.00 42 1017.7
20260508174851 20 252 19.3 22.5 0.00 0.00 0.00 41 1017.7
20260508174348 20 245 20.9 25.7 0.00 0.00 0.00 44 1017.6
20260508173845 20 246 20.9 24.1 0.00 0.00 0.00 44 1017.9
20260508173342 19 251 16.1 17.7 0.00 0.00 0.00 45 1018.0
20260508172837 19 236 14.5 16.1 0.00 0.00 0.00 44 1017.8
20260508172335 19 229 16.1 20.9 0.00 0.00 0.00 43 1018.0
20260508171831 19 246 16.1 17.7 0.00 0.00 0.00 45 1018.2
20260508171328 19 225 12.9 16.1 0.00 0.00 0.00 43 1018.4
20260508170825 19 282 17.7 20.9 0.00 0.00 0.00 45 1018.4
20260508170323 18 231 9.7 11.3 0.00 0.00 0.00 45 1018.2
20260508165819 18 303 19.3 22.5 0.00 0.00 0.00 45 1018.2
20260508165316 18 235 20.9 27.4 0.00 0.00 0.00 45 1018.4
20260508164812 18 206 14.5 16.1 0.00 0.00 0.00 46 1018.4
20260508164309 18 278 17.7 22.5 0.00 0.00 0.00 49 1018.5
20260508163807 18 234 14.5 16.1 0.00 0.00 0.00 47 1018.5
20260508163305 18 268 19.3 27.4 0.00 0.00 0.00 51 1018.8
20260508162800 18 225 16.1 22.5 0.00 0.00 0.00 46 1018.8
20260508162257 18 266 19.3 22.5 0.00 0.00 0.00 47 1019.0
20260508161754 18 255 14.5 20.9 0.00 0.00 0.00 48 1019.2
20260508161251 17 280 14.5 17.7 0.00 0.00 0.00 51 1019.1
20260508160749 17 217 17.7 20.9 0.00 0.00 0.00 49 1019.0
20260508160247 17 254 17.7 20.9 0.00 0.00 0.00 48 1019.2
20260508155743 17 194 14.5 17.7 0.00 0.00 0.00 47 1018.9
20260508155241 17 229 14.5 16.1 0.00 0.00 0.00 50 1019.1
20260508154732 17 212 12.9 16.1 0.00 0.00 0.00 48 1019.2
20260508154229 16 235 9.7 12.9 0.00 0.00 0.00 57 1019.4
20260508153726 16 279 17.7 20.9 0.00 0.00 0.00 48 1019.5
20260508153223 16 267 14.5 17.7 0.00 0.00 0.00 50 1019.6
20260508152719 16 265 19.3 25.7 0.00 0.00 0.00 51 1019.5
20260508152215 16 264 16.1 20.9 0.00 0.00 0.00 52 1019.5
20260508151712 16 274 19.3 24.1 0.00 0.00 0.00 51 1019.5
20260508151209 16 251 17.7 24.1 0.00 0.00 0.00 52 1019.7
20260508150705 16 226 14.5 16.1 0.00 0.00 0.00 51 1019.8
20260508150202 16 250 16.1 17.7 0.00 0.00 0.00 52 1019.7
20260508145658 16 286 17.7 22.5 0.00 0.00 0.00 51 1019.5
20260508145154 15 291 14.5 16.1 0.00 0.00 0.00 53 1019.8
20260508144652 15 229 16.1 17.7 0.00 0.00 0.00 54 1019.6
20260508144150 15 244 19.3 22.5 0.00 0.00 0.00 52 1019.9
20260508143647 15 248 17.7 22.5 0.00 0.00 0.00 53 1019.7
20260508143144 15 241 17.7 17.7 0.00 0.00 0.00 49 1019.8
20260508142640 15 219 17.7 20.9 0.00 0.00 0.00 53 1019.9
20260508142137 15 250 12.9 14.5 0.00 0.00 0.00 54 1019.7
20260508141633 13 238 19.3 22.5 0.00 0.00 0.00 53 1019.9
20260508141131 13 252 12.9 17.7 0.00 0.00 0.00 55 1020.1
20260508140628 13 233 12.9 16.1 0.00 0.00 0.00 55 1020.0
20260508140125 12 229 12.9 14.5 0.00 0.00 0.00 56 1020.0
20260508135621 12 234 12.9 14.5 0.00 0.00 0.00 57 1020.1
20260508135117 12 227 12.9 14.5 0.00 0.00 0.00 58 1020.2
20260508134614 12 250 12.9 14.5 0.00 0.00 0.00 59 1020.2
20260508134111 12 235 12.9 17.7 0.00 0.00 0.00 59 1020.0
20260508133608 12 234 16.1 16.1 0.00 0.00 0.00 58 1020.1
20260508133105 12 239 14.5 16.1 0.00 0.00 0.00 59 1020.1
20260508132603 12 257 17.7 22.5 0.00 0.00 0.00 57 1020.0
20260508132059 12 251 11.3 12.9 0.00 0.00 0.00 59 1020.1
20260508131555 11 224 16.1 17.7 0.00 0.00 0.00 58 1020.0
20260508131052 11 234 11.3 14.5 0.00 0.00 0.00 62 1020.0
20260508130548 10 235 11.3 12.9 0.00 0.00 0.00 62 1020.1
20260508130045 10 260 11.3 12.9 0.00 0.00 0.00 64 1020.0
20260508125541 10 235 11.3 11.3 0.00 0.00 0.00 65 1020.0
20260508125039 10 244 9.7 11.3 0.00 0.00 0.00 63 1020.1
20260508124537 10 224 11.3 12.9 0.00 0.00 0.00 63 1020.0
20260508124033 10 246 11.3 12.9 0.00 0.00 0.00 62 1019.9
20260508123532 10 230 11.3 12.9 0.00 0.00 0.00 63 1020.1
20260508123028 10 225 11.3 12.9 0.00 0.00 0.00 63 1019.9
20260508122525 9 235 8.0 11.3 0.00 0.00 0.00 64 1020.1
20260508122022 10 217 9.7 12.9 0.00 0.00 0.00 63 1020.0
20260508121520 9 251 9.7 11.3 0.00 0.00 0.00 64 1019.9
20260508121018 9 224 9.7 11.3 0.00 0.00 0.00 64 1019.7
20260508120515 10 224 9.7 12.9 0.00 0.00 0.00 63 1019.8
20260508120013 9 246 8.0 11.3 0.00 0.00 0.00 63 1019.7
20260508115510 9 261 8.0 9.7 0.00 0.00 0.00 63 1019.6
20260508115007 8 230 9.7 11.3 0.00 0.00 0.00 64 1019.8
20260508114504 8 230 9.7 11.3 0.00 0.00 0.00 65 1019.9
20260508114000 8 230 8.0 8.0 0.00 0.00 0.00 64 1019.6
20260508113458 8 234 9.7 11.3 0.00 0.00 0.00 65 1019.8
20260508112955 8 227 14.5 14.5 0.00 0.00 0.00 64 1019.5
20260508112451 8 252 9.7 11.3 0.00 0.00 0.00 65 1019.5
20260508111948 8 238 9.7 14.5 0.00 0.00 0.00 64 1019.4
20260508111445 8 257 11.3 14.5 0.00 0.00 0.00 64 1019.3
20260508110942 8 253 11.3 14.5 0.00 0.00 0.00 64 1019.2
20260508110440 8 255 8.0 11.3 0.00 0.00 0.00 64 1019.4
20260508105939 8 238 9.7 11.3 0.00 0.00 0.00 65 1019.4
20260508105436 8 231 9.7 11.3 0.00 0.00 0.00 66 1019.3
20260508104933 7 230 9.7 11.3 0.00 0.00 0.00 66 1019.5
20260508104431 7 236 8.0 9.7 0.00 0.00 0.00 66 1019.3
20260508103927 7 240 6.4 8.0 0.00 0.00 0.00 67 1019.3
20260508103425 7 239 6.4 8.0 0.00 0.00 0.00 68 1019.3
20260508102921 7 225 6.4 9.7 0.00 0.00 0.00 68 1019.3
20260508102420 7 250 6.4 8.0 0.00 0.00 0.00 67 1019.2
20260508101917 7 241 8.0 9.7 0.00 0.00 0.00 67 1019.4
20260508101414 7 229 8.0 9.7 0.00 0.00 0.00 66 1019.3
20260508100911 7 229 4.8 4.8 0.00 0.00 0.00 65 1019.3
20260508100410 7 255 8.0 11.3 0.00 0.00 0.00 66 1019.3
20260508095905 7 235 8.0 9.7 0.00 0.00 0.00 66 1019.2
20260508095403 7 249 8.0 11.3 0.00 0.00 0.00 66 1019.1
20260508094900 7 234 9.7 11.3 0.00 0.00 0.00 66 1019.4
20260508094356 7 243 8.0 9.7 0.00 0.00 0.00 65 1019.3
20260508093854 7 240 8.0 9.7 0.00 0.00 0.00 65 1019.4
20260508093351 7 230 9.7 11.3 0.00 0.00 0.00 65 1019.3
20260508092848 7 223 8.0 9.7 0.00 0.00 0.00 66 1019.4
20260508092346 7 238 8.0 9.7 0.00 0.00 0.00 65 1019.6
20260508091844 7 230 8.0 9.7 0.00 0.00 0.00 66 1019.3
20260508091340 7 224 8.0 9.7 0.00 0.00 0.00 65 1019.4
20260508090838 7 250 9.7 11.3 0.00 0.00 0.00 64 1019.1
20260508090337 7 223 8.0 9.7 0.00 0.00 0.00 64 1019.4
20260508085832 7 227 8.0 11.3 0.00 0.00 0.00 65 1019.2
20260508085329 7 249 6.4 8.0 0.00 0.00 0.00 65 1019.2
20260508084826 7 237 8.0 9.7 0.00 0.00 0.00 66 1019.2
20260508084323 7 240 8.0 11.3 0.00 0.00 0.00 65 1019.1
20260508083820 7 240 8.0 9.7 0.00 0.00 0.00 65 1019.1
20260508083318 7 218 8.0 9.7 0.00 0.00 0.00 63 1019.1
20260508082817 7 231 6.4 8.0 0.00 0.00 0.00 64 1019.0
20260508082315 7 258 8.0 9.7 0.00 0.00 0.00 64 1019.1
20260508081812 7 244 8.0 9.7 0.00 0.00 0.00 64 1019.3
20260508081309 7 248 9.7 11.3 0.00 0.00 0.00 64 1019.1
20260508080806 8 231 6.4 8.0 0.00 0.00 0.00 63 1019.3
20260508080304 8 227 9.7 11.3 0.00 0.00 0.00 62 1019.1
20260508075800 8 224 8.0 9.7 0.00 0.00 0.00 63 1019.1
20260508075257 8 230 8.0 9.7 0.00 0.00 0.00 63 1019.1
20260508074755 8 240 8.0 8.0 0.00 0.00 0.00 62 1019.1
20260508074252 8 254 8.0 8.0 0.00 0.00 0.00 61 1019.1
20260508073749 8 256 6.4 8.0 0.00 0.00 0.00 61 1019.2
20260508073247 8 238 9.7 11.3 0.00 0.00 0.00 61 1019.0
20260508072743 8 237 8.0 9.7 0.00 0.00 0.00 62 1019.2
20260508072240 8 230 8.0 9.7 0.00 0.00 0.00 62 1019.1
20260508071737 8 234 8.0 8.0 0.00 0.00 0.00 63 1019.3
20260508071235 8 227 8.0 9.7 0.00 0.00 0.00 63 1019.2
20260508070732 8 244 8.0 9.7 0.00 0.00 0.00 64 1019.3
20260508070231 8 227 9.7 11.3 0.00 0.00 0.00 64 1019.4
20260508065728 8 224 8.0 9.7 0.00 0.00 0.00 63 1019.4
20260508065226 8 222 9.7 11.3 0.00 0.00 0.00 62 1019.6
20260508064723 8 235 9.7 11.3 0.00 0.00 0.00 63 1019.4
20260508064221 8 241 9.7 11.3 0.00 0.00 0.00 63 1019.5
20260508063718 8 217 9.7 11.3 0.00 0.00 0.00 64 1019.6
20260508063216 8 239 9.7 11.3 0.00 0.00 0.00 64 1019.6
20260508062713 8 267 8.0 9.7 0.00 0.00 0.00 64 1019.6
20260508062211 8 256 8.0 9.7 0.00 0.00 0.00 64 1019.4
20260508061707 8 223 8.0 9.7 0.00 0.00 0.00 64 1019.6
20260508061205 8 229 8.0 9.7 0.00 0.00 0.00 65 1019.6
20260508060702 8 239 8.0 9.7 0.00 0.00 0.00 64 1019.4
20260508060159 8 245 8.0 11.3 0.00 0.00 0.00 65 1019.8
20260508055654 7 233 6.4 8.0 0.00 0.00 0.00 66 1019.6
20260508055151 7 246 4.8 8.0 0.00 0.00 0.00 67 1019.7
20260508054648 7 232 6.4 8.0 0.00 0.00 0.00 67 1019.5
20260508054145 7 234 8.0 9.7 0.00 0.00 0.00 67 1019.7
20260508053642 7 235 4.8 4.8 0.00 0.00 0.00 68 1019.5
20260508053140 8 235 4.8 4.8 0.00 0.00 0.00 66 1019.6
20260508052637 8 258 4.8 8.0 0.00 0.00 0.00 65 1019.5
20260508052134 7 246 6.4 8.0 0.00 0.00 0.00 66 1019.5
20260508051630 7 232 6.4 8.0 0.00 0.00 0.00 69 1019.9
20260508051125 7 237 4.8 4.8 0.00 0.00 0.00 69 1019.8
20260508050622 7 246 6.4 9.7 0.00 0.00 0.00 69 1019.6
20260508050120 8 247 4.8 4.8 0.00 0.00 0.00 64 1019.5
20260508045615 8 248 6.4 8.0 0.00 0.00 0.00 61 1019.7
20260508045113 8 241 4.8 4.8 0.00 0.00 0.00 61 1019.6
20260508044610 8 246 4.8 8.0 0.00 0.00 0.00 63 1019.6
20260508044106 8 246 3.2 3.2 0.00 0.00 0.00 64 1019.7
20260508043603 8 237 4.8 4.8 0.00 0.00 0.00 60 1019.6
20260508043101 8 238 1.6 3.2 0.00 0.00 0.00 61 1019.6
20260508042557 8 236 3.2 3.2 0.00 0.00 0.00 62 1019.8
20260508042055 8 245 3.2 3.2 0.00 0.00 0.00 62 1019.7
20260508041551 8 251 3.2 3.2 0.00 0.00 0.00 64 1019.8
20260508041047 7 245 3.2 3.2 0.00 0.00 0.00 65 1019.7
20260508040544 7 238 4.8 4.8 0.00 0.00 0.00 70 1019.6
20260508040042 8 257 3.2 3.2 0.00 0.00 0.00 68 1019.9
20260508035538 7 266 3.2 3.2 0.00 0.00 0.00 64 1019.8
20260508035036 7 237 4.8 4.8 0.00 0.00 0.00 68 1019.6
20260508034532 7 220 1.6 1.6 0.00 0.00 0.00 71 1019.6
20260508034029 7 233 3.2 3.2 0.00 0.00 0.00 74 1019.7
20260508033527 7 260 3.2 3.2 0.00 0.00 0.00 73 1019.8
20260508033025 7 251 1.6 1.6 0.00 0.00 0.00 67 1019.7
20260508032521 7 232 1.6 3.2 0.00 0.00 0.00 74 1019.4
20260508032019 7 257 3.2 3.2 0.00 0.00 0.00 74 1019.8
20260508031516 8 267 3.2 3.2 0.00 0.00 0.00 68 1019.6
20260508031012 8 226 4.8 4.8 0.00 0.00 0.00 62 1019.6
20260508030509 7 210 3.2 3.2 0.00 0.00 0.00 65 1019.6
20260508030007 7 202 1.6 3.2 0.00 0.00 0.00 68 1019.5
20260508025502 7 233 0.0 0.0 0.00 0.00 0.00 74 1019.8
20260508025000 6 241 0.0 0.0 0.00 0.00 0.00 73 1019.6
20260508024455 7 237 0.0 0.0 0.00 0.00 0.00 74 1019.8
20260508023952 7 243 0.0 0.0 0.00 0.00 0.00 71 1019.6
20260508023449 7 240 0.0 0.0 0.00 0.00 0.00 69 1019.6
20260508022947 8 237 1.6 1.6 0.00 0.00 0.00 66 1019.5
20260508022442 8 236 1.6 1.6 0.00 0.00 0.00 65 1019.6
20260508021939 7 228 3.2 3.2 0.00 0.00 0.00 66 1019.8
20260508021435 8 222 0.0 0.0 0.00 0.00 0.00 71 1019.7
20260508020931 7 228 1.6 3.2 0.00 0.00 0.00 72 1019.7
20260508020429 6 250 0.0 0.0 0.00 0.00 0.00 74 1019.9
20260508015926 7 300 0.0 0.0 0.00 0.00 0.00 78 1019.6
20260508015424 6 298 0.0 0.0 0.00 0.00 0.00 77 1019.5
20260508014920 6 335 0.0 0.0 0.00 0.00 0.00 79 1019.4
20260508014417 6 350 0.0 0.0 0.00 0.00 0.00 76 1019.5
20260508013912 6 350 0.0 0.0 0.00 0.00 0.00 75 1019.6
20260508013409 7 351 0.0 0.0 0.00 0.00 0.00 74 1019.6
20260508012906 7 351 0.0 0.0 0.00 0.00 0.00 72 1019.4
20260508012403 8 351 0.0 0.0 0.00 0.00 0.00 71 1019.8
20260508011901 8 351 0.0 0.0 0.00 0.00 0.00 71 1019.3
20260508011359 8 215 0.0 0.0 0.00 0.00 0.00 62 1019.2
20260508010855 8 213 0.0 0.0 0.00 0.00 0.00 62 1019.4
20260508010353 8 217 0.0 0.0 0.00 0.00 0.00 63 1019.6
20260508005850 10 217 0.0 0.0 0.00 0.00 0.00 62 1019.4
20260508005346 10 217 0.0 0.0 0.00 0.00 0.00 62 1019.2
20260508004843 10 221 1.6 3.2 0.00 0.00 0.00 57 1019.3
20260508004339 10 231 3.2 3.2 0.00 0.00 0.00 58 1019.3
20260508003836 10 251 1.6 3.2 0.00 0.00 0.00 57 1019.2
20260508003333 11 280 3.2 3.2 0.00 0.00 0.00 56 1019.2
20260508002830 11 268 1.6 1.6 0.00 0.00 0.00 56 1019.0
20260508002327 11 270 3.2 3.2 0.00 0.00 0.00 55 1019.0
20260508001823 11 272 3.2 3.2 0.00 0.00 0.00 52 1019.0
20260508001319 12 289 3.2 3.2 0.00 0.00 0.00 46 1019.2
20260508000815 12 293 3.2 3.2 0.00 0.00 0.00 47 1019.1
20260508000312 12 296 3.2 3.2 0.00 0.00 0.00 48 1019.0
20260507235808 13 313 3.2 3.2 0.00 0.00 0.00 46 1019.1
20260507235307 13 299 1.6 3.2 0.00 0.00 0.00 48 1018.9
20260507234803 13 298 4.8 4.8 0.00 0.00 0.00 42 1019.1
20260507234259 13 299 4.8 4.8 0.00 0.00 0.00 40 1018.8
20260507233755 15 312 6.4 8.0 0.00 0.00 0.00 38 1019.0
20260507233254 15 332 1.6 1.6 0.00 0.00 0.00 36 1018.6
20260507232751 15 315 0.0 0.0 0.00 0.00 0.00 38 1018.8
20260507232248 15 331 1.6 3.2 0.00 0.00 0.00 37 1018.9
20260507231744 15 337 1.6 1.6 0.00 0.00 0.00 37 1018.9
20260507231241 15 349 4.8 4.8 0.00 0.00 0.00 38 1019.0
20260507230738 14 302 8.0 9.7 0.00 0.00 0.00 40 1018.8
20260507230236 14 333 4.8 4.8 0.00 0.00 0.00 41 1019.1
20260507225735 14 331 6.4 8.0 0.00 0.00 0.00 36 1018.9
20260507225231 14 317 8.0 9.7 0.00 0.00 0.00 39 1018.8
20260507224727 15 318 6.4 8.0 0.00 0.00 0.00 41 1018.8
20260507224224 14 316 6.4 11.3 0.00 0.00 0.00 40 1018.6
20260507223720 13 296 16.1 17.7 0.00 0.00 0.00 38 1019.0
20260507223217 12 342 12.9 16.1 0.00 0.00 0.00 43 1019.0
20260507222714 13 308 8.0 9.7 0.00 0.00 0.00 43 1019.2
20260507222210 13 341 8.0 11.3 0.00 0.00 0.00 42 1019.1
20260507221707 13 332 4.8 4.8 0.00 0.00 0.00 43 1019.1
20260507221203 13 330 17.7 20.9 0.00 0.00 0.00 41 1019.2
20260507220700 13 337 11.3 12.9 0.00 0.00 0.00 42 1019.2
20260507220158 13 340 8.0 12.9 0.00 0.00 0.00 44 1019.2
20260507215654 15 312 12.9 16.1 0.00 0.00 0.00 39 1019.1
20260507215152 15 322 11.3 16.1 0.00 0.00 0.00 42 1018.9
20260507214649 15 345 9.7 11.3 0.00 0.00 0.00 40 1019.1
20260507214145 14 292 8.0 11.3 0.00 0.00 0.00 39 1019.1
20260507213641 14 341 14.5 17.7 0.00 0.00 0.00 40 1019.0
20260507213139 14 313 9.7 12.9 0.00 0.00 0.00 43 1019.1
20260507212634 14 330 3.2 3.2 0.00 0.00 0.00 38 1018.8
20260507212131 15 343 6.4 8.0 0.00 0.00 0.00 44 1018.9
20260507211628 15 5 4.8 9.7 0.00 0.00 0.00 41 1018.9
20260507211124 15 346 14.5 16.1 0.00 0.00 0.00 40 1019.0
20260507210622 14 335 4.8 8.0 0.00 0.00 0.00 42 1018.9
20260507210118 14 341 8.0 9.7 0.00 0.00 0.00 41 1018.8
20260507205615 15 348 16.1 17.7 0.00 0.00 0.00 40 1018.6
20260507205111 15 8 8.0 14.5 0.00 0.00 0.00 39 1018.8
20260507204608 15 326 12.9 14.5 0.00 0.00 0.00 39 1018.6
20260507204105 15 335 12.9 14.5 0.00 0.00 0.00 41 1018.6
20260507203603 15 6 12.9 16.1 0.00 0.00 0.00 41 1018.6
20260507203100 15 8 9.7 12.9 0.00 0.00 0.00 42 1018.6
20260507202556 15 319 11.3 14.5 0.00 0.00 0.00 41 1018.5
20260507202052 15 334 11.3 12.9 0.00 0.00 0.00 40 1018.6
20260507201548 15 315 14.5 17.7 0.00 0.00 0.00 43 1018.6
20260507201044 15 310 4.8 4.8 0.00 0.00 0.00 44 1018.8
20260507200540 15 316 11.3 14.5 0.00 0.00 0.00 43 1018.6
20260507200036 14 331 8.0 12.9 0.00 0.00 0.00 43 1018.9
20260507195534 14 308 12.9 16.1 0.00 0.00 0.00 44 1018.9
20260507195031 15 323 9.7 11.3 0.00 0.00 0.00 42 1018.8
20260507194527 15 327 12.9 16.1 0.00 0.00 0.00 42 1019.1
20260507194023 15 324 9.7 12.9 0.00 0.00 0.00 38 1018.9
20260507193521 14 309 12.9 17.7 0.00 0.00 0.00 45 1018.8
20260507193018 15 352 14.5 17.7 0.00 0.00 0.00 44 1018.9
20260507192514 14 297 14.5 16.1 0.00 0.00 0.00 44 1019.1
20260507192010 14 315 11.3 14.5 0.00 0.00 0.00 47 1019.2
20260507191506 14 313 17.7 24.1 0.00 0.00 0.00 43 1019.1
20260507191003 14 323 16.1 24.1 0.00 0.00 0.00 43 1019.1
20260507190500 14 297 12.9 16.1 0.00 0.00 0.00 42 1019.1
20260507185959 14 257 3.2 4.8 0.00 0.00 0.00 45 1019.0
20260507185456 14 315 8.0 11.3 0.00 0.00 0.00 45 1019.0
20260507184953 14 310 17.7 22.5 0.00 0.00 0.00 42 1019.2
20260507184451 14 306 12.9 20.9 0.00 0.00 0.00 43 1019.1
20260507183949 13 296 11.3 14.5 0.00 0.00 0.00 46 1019.0
20260507183445 14 295 14.5 17.7 0.00 0.00 0.00 44 1019.1
20260507182942 14 308 8.0 9.7 0.00 0.00 0.00 47 1018.9
20260507182438 13 338 11.3 12.9 0.00 0.00 0.00 47 1019.1
20260507181934 13 302 9.7 14.5 0.00 0.00 0.00 42 1019.3
20260507181431 14 307 12.9 14.5 0.00 0.00 0.00 44 1019.3